Flag for U.S.A. Weather past 2 weeks in Newark, New Jersey, U.S.A.

57 °F


Feels Like: 57 °F
Forecast: 50 / 60 °F
Wind: No wind

Location: Newark International Airport

Current Time: Nov 28, 2015 at 10:00:51 AM

Latest Report: Nov 28, 2015 at 8:51 AM

Visibility: 10 mi

Pressure: 30.16 "Hg

Humidity: 69%

Dew point: 47 °F

Location of NewarkLocation

Historic Weather in Newark — Graph


Newark temperature yesterday

Maximum temperature yesterday: 66 °F (at 1:51 PM)
Minimum temperature yesterday: 43 °F (at 5:51 AM)
Average temperature yesterday: 53 °F

Past Weeks' High & Low Weather Summary

High70 °F (Nov 16, 2:51 PM)100% (Nov 19, 9:51 PM)30.82 "Hg (Nov 19, 9:51 PM)
Low27 °F (Nov 24, 1:51 AM)20% (Nov 20, 2:51 PM)29.66 "Hg (Nov 13, 9:51 AM)
Average49 °F58%30.27 "Hg
* Reported Nov 13 8:51 AM — Nov 28 8:51 AM, Newark, Weather by CustomWeather, © 2015

Note: Actual official high and low records may vary slightly from our data, if they occured in-between our weather recording intervals... More about our weather records


Newark weather history for previous 24 hours

Time TempWeatherWind HumidityBarometerVisibility
8:51 AM
Sat, Nov 28
57 °FCloudy.No wind69%30.16 "Hg10 mi
7:51 AM52 °FCloudy.3 mph83%30.16 "Hg10 mi
6:51 AM52 °FPassing clouds.3 mph80%30.16 "Hg10 mi
5:51 AM52 °FMostly cloudy.7 mph80%30.17 "Hg10 mi
4:51 AM52 °FPartly cloudy.7 mph80%30.16 "Hg10 mi
3:51 AM53 °FPartly cloudy.10 mph77%30.16 "Hg10 mi
2:51 AM53 °FPassing clouds.7 mph77%30.17 "Hg10 mi
1:51 AM54 °FPartly cloudy.7 mph74%30.19 "Hg10 mi
12:51 AM54 °FPartly cloudy.9 mph74%30.22 "Hg10 mi
11:51 PM
Fri, Nov 27
54 °FPartly cloudy.6 mph74%30.23 "Hg10 mi
10:51 PM55 °FOvercast.8 mph69%30.24 "Hg10 mi
9:51 PM55 °FPassing clouds.9 mph67%30.26 "Hg10 mi
8:51 PM56 °FPassing clouds.8 mph65%30.27 "Hg10 mi
7:51 PM56 °FPassing clouds.10 mph65%30.28 "Hg10 mi
6:51 PM59 °FPassing clouds.10 mph60%30.29 "Hg10 mi
5:51 PM61 °FPassing clouds.6 mph58%30.29 "Hg10 mi
4:51 PM62 °FPassing clouds.7 mph58%30.32 "Hg10 mi
3:51 PM64 °FPartly sunny.8 mph52%30.33 "Hg10 mi
2:51 PM66 °FPartly sunny.12 mph49%30.36 "Hg10 mi
1:51 PM66 °FPartly sunny.10 mph49%30.38 "Hg10 mi
12:51 PM64 °FPartly sunny.9 mph58%30.41 "Hg10 mi
11:51 AM60 °FPartly sunny.9 mph67%30.46 "Hg10 mi
10:51 AM58 °FPartly sunny.9 mph72%30.50 "Hg10 mi
Weather by CustomWeather, © 2015

See weather overviewHow to use our weather pages